| time (UTC) | temp F | wind direction | speed knots | gust knots | rain 1hr in | rain 24hr in | rain mn in | humidity % | barometer mb |
| 20260506132252 | 48 | 342 | 7.8 | 11.3 | 0.00 | 1.14 | 0.18 | 82 | 1010.2 |
| 20260506131251 | 48 | 341 | 6.1 | 9.6 | 0.00 | 1.14 | 0.18 | 82 | 1009.8 |
| 20260506130250 | 47 | 352 | 5.2 | 8.7 | 0.00 | 1.14 | 0.18 | 84 | 1009.8 |
| 20260506125249 | 46 | 350 | 4.3 | 8.7 | 0.00 | 1.14 | 0.18 | 86 | 1009.4 |
| 20260506124249 | 46 | 353 | 3.5 | 7.8 | 0.00 | 1.14 | 0.18 | 88 | 1009.1 |
| 20260506123217 | 45 | 354 | 5.2 | 7.8 | 0.00 | 1.14 | 0.18 | 88 | 1009.1 |
| 20260506122216 | 45 | 354 | 4.3 | 7.8 | 0.00 | 1.14 | 0.18 | 89 | 1008.7 |
| 20260506121215 | 45 | 348 | 4.3 | 7.8 | 0.00 | 1.14 | 0.18 | 89 | 1008.7 |
| 20260506120214 | 45 | 349 | 5.2 | 7.8 | 0.00 | 1.14 | 0.18 | 89 | 1008.7 |
| 20260506115142 | 45 | 342 | 4.3 | 7.8 | 0.00 | 1.14 | 0.18 | 92 | 1008.7 |
| 20260506114141 | 45 | 339 | 5.2 | 6.1 | 0.00 | 1.14 | 0.18 | 92 | 1008.8 |
| 20260506113141 | 45 | 332 | 2.6 | 6.1 | 0.00 | 1.14 | 0.18 | 93 | 1008.7 |
| 20260506112140 | 45 | 330 | 1.7 | 3.5 | 0.00 | 1.14 | 0.18 | 93 | 1008.4 |
| 20260506111139 | 45 | 332 | 1.7 | 3.5 | 0.00 | 1.14 | 0.18 | 92 | 1008.1 |
| 20260506110138 | 45 | 318 | 0.9 | 2.6 | 0.00 | 1.14 | 0.18 | 92 | 1007.7 |
| 20260506105137 | 45 | 325 | 1.7 | 4.3 | 0.00 | 1.14 | 0.18 | 92 | 1007.7 |
| 20260506104136 | 45 | 342 | 1.7 | 6.1 | 0.00 | 1.14 | 0.18 | 92 | 1007.7 |
| 20260506103135 | 45 | 359 | 4.3 | 6.1 | 0.00 | 1.14 | 0.18 | 92 | 1007.4 |
| 20260506102135 | 45 | 15 | 2.6 | 8.7 | 0.00 | 1.14 | 0.18 | 92 | 1007.1 |
| 20260506101134 | 45 | 358 | 4.3 | 8.7 | 0.00 | 1.14 | 0.18 | 93 | 1007.8 |
| 20260506100133 | 45 | 349 | 7.0 | 8.7 | 0.00 | 1.14 | 0.18 | 93 | 1007.8 |
| 20260506095132 | 45 | 359 | 3.5 | 4.3 | 0.00 | 1.14 | 0.18 | 93 | 1007.2 |
| 20260506094130 | 45 | 32 | 0.9 | 1.7 | 0.00 | 1.14 | 0.18 | 93 | 1006.5 |
| 20260506093129 | 45 | 0 | 0.9 | 2.6 | 0.01 | 1.14 | 0.18 | 93 | 1006.9 |
| 20260506092128 | 45 | 7 | 0.9 | 2.6 | 0.01 | 1.14 | 0.18 | 93 | 1007.3 |
| 20260506091128 | 45 | 9 | 1.7 | 6.1 | 0.01 | 1.14 | 0.18 | 93 | 1007.6 |
| 20260506090127 | 45 | 4 | 2.6 | 6.1 | 0.01 | 1.14 | 0.18 | 92 | 1007.9 |
| 20260506085055 | 45 | 1 | 2.6 | 4.3 | 0.03 | 1.14 | 0.18 | 93 | 1007.9 |
| 20260506084054 | 45 | 356 | 2.6 | 4.3 | 0.04 | 1.14 | 0.18 | 93 | 1007.9 |
| 20260506083053 | 45 | 3 | 2.6 | 4.3 | 0.04 | 1.13 | 0.17 | 92 | 1007.6 |
| 20260506082053 | 45 | 10 | 3.5 | 7.0 | 0.04 | 1.13 | 0.17 | 92 | 1007.6 |
| 20260506081052 | 45 | 9 | 3.5 | 7.0 | 0.05 | 1.13 | 0.17 | 92 | 1007.3 |
| 20260506073049 | 46 | 7 | 4.3 | 7.0 | 0.05 | 1.09 | 0.13 | 92 | 1007.7 |
| 20260506072048 | 46 | 27 | 3.5 | 7.0 | 0.06 | 1.09 | 0.13 | 93 | 1007.3 |
| 20260506071017 | 46 | 13 | 2.6 | 4.3 | 0.06 | 1.08 | 0.12 | 93 | 1007.7 |
| 20260506061911 | 46 | 70 | 0.9 | 2.6 | 0.04 | 1.03 | 0.07 | 93 | 1007.4 |
| 20260506060910 | 46 | 30 | 0.9 | 2.6 | 0.04 | 1.02 | 0.06 | 93 | 1007.5 |
| 20260506050659 | 46 | 64 | 0.9 | 3.5 | 0.02 | 0.98 | 0.02 | 91 | 1007.9 |
| 20260506044658 | 46 | 49 | 0.9 | 1.7 | 0.03 | 0.98 | 0.02 | 91 | 1007.5 |
| 20260506043658 | 46 | 90 | 1.7 | 2.6 | 0.03 | 0.97 | 0.01 | 90 | 1007.9 |
| 20260506042657 | 46 | 79 | 0.9 | 3.5 | 0.03 | 0.96 | 0.00 | 90 | 1007.9 |
| 20260506041656 | 46 | 87 | 0.9 | 5.2 | 0.04 | 0.96 | 0.00 | 89 | 1007.9 |
| 20260506040656 | 47 | 69 | 2.6 | 7.0 | 0.05 | 0.96 | 0.00 | 89 | 1007.9 |
| 20260506035655 | 48 | 55 | 4.3 | 7.8 | 0.06 | 0.95 | 0.95 | 90 | 1008.3 |
| 20260506034654 | 48 | 60 | 3.5 | 7.8 | 0.07 | 0.95 | 0.95 | 90 | 1008.3 |
| 20260506033654 | 48 | 53 | 2.6 | 4.3 | 0.09 | 0.94 | 0.94 | 93 | 1008.7 |
| 20260506032653 | 48 | 29 | 2.6 | 4.3 | 0.10 | 0.93 | 0.93 | 93 | 1008.7 |
| 20260506031652 | 48 | 15 | 0.9 | 4.3 | 0.11 | 0.92 | 0.92 | 94 | 1008.7 |
| 20260506030651 | 48 | 356 | 1.7 | 6.1 | 0.14 | 0.91 | 0.91 | 93 | 1008.7 |
| 20260506025651 | 49 | 5 | 2.6 | 6.1 | 0.14 | 0.89 | 0.89 | 93 | 1008.7 |
| 20260506024650 | 49 | 18 | 2.6 | 6.1 | 0.14 | 0.88 | 0.88 | 94 | 1008.7 |
| 20260506023649 | 49 | 18 | 1.7 | 3.5 | 0.14 | 0.85 | 0.85 | 94 | 1008.7 |
| 20260506022648 | 49 | 65 | 0.9 | 1.7 | 0.15 | 0.83 | 0.83 | 94 | 1008.7 |
| 20260506021647 | 49 | 65 | 0.0 | 3.5 | 0.15 | 0.81 | 0.81 | 94 | 1008.7 |
| 20260506020647 | 49 | 58 | 0.9 | 3.5 | 0.12 | 0.77 | 0.77 | 94 | 1008.3 |
| 20260506015615 | 49 | 55 | 0.9 | 1.7 | 0.11 | 0.75 | 0.75 | 94 | 1008.0 |
| 20260506014543 | 49 | 89 | 0.9 | 1.7 | 0.10 | 0.73 | 0.73 | 94 | 1007.6 |
| 20260506013542 | 49 | 82 | 0.0 | 1.7 | 0.07 | 0.70 | 0.70 | 94 | 1007.6 |
| 20260506012510 | 49 | 112 | 0.9 | 2.6 | 0.05 | 0.67 | 0.67 | 94 | 1007.6 |
| 20260506011336 | 49 | 90 | 0.9 | 3.5 | 0.04 | 0.66 | 0.66 | 94 | 1007.6 |
| 20260506010334 | 49 | 106 | 1.7 | 3.5 | 0.05 | 0.65 | 0.65 | 93 | 1007.6 |
| 20260506005333 | 49 | 78 | 1.7 | 2.6 | 0.05 | 0.64 | 0.64 | 93 | 1007.6 |
| 20260506004331 | 49 | 88 | 0.9 | 3.5 | 0.06 | 0.63 | 0.63 | 93 | 1007.6 |
| 20260506003330 | 49 | 63 | 0.9 | 4.3 | 0.09 | 0.63 | 0.63 | 93 | 1007.6 |
| 20260506002329 | 49 | 74 | 1.7 | 4.3 | 0.09 | 0.62 | 0.62 | 93 | 1007.6 |
| 20260506001328 | 50 | 45 | 2.6 | 7.0 | 0.09 | 0.62 | 0.62 | 93 | 1007.2 |
| 20260506000329 | 50 | 40 | 3.5 | 7.0 | 0.07 | 0.60 | 0.60 | 93 | 1007.2 |
| 20260505235325 | 50 | 44 | 2.6 | 4.3 | 0.07 | 0.59 | 0.59 | 93 | 1006.9 |
| 20260505234324 | 50 | 102 | 1.7 | 4.3 | 0.05 | 0.57 | 0.57 | 93 | 1006.6 |
| 20260505233324 | 50 | 71 | 1.7 | 4.3 | 0.03 | 0.54 | 0.54 | 93 | 1006.9 |
| 20260505232323 | 50 | 47 | 2.6 | 5.2 | 0.04 | 0.53 | 0.53 | 93 | 1006.9 |
| 20260505231251 | 50 | 71 | 1.7 | 6.1 | 0.09 | 0.53 | 0.53 | 93 | 1006.9 |
| 20260505230250 | 50 | 41 | 3.5 | 5.2 | 0.11 | 0.53 | 0.53 | 92 | 1006.9 |
| 20260505225250 | 50 | 79 | 1.7 | 7.8 | 0.11 | 0.52 | 0.52 | 92 | 1007.2 |
| 20260505224249 | 50 | 19 | 4.3 | 7.8 | 0.12 | 0.52 | 0.52 | 92 | 1007.6 |
| 20260505223248 | 50 | 15 | 3.5 | 10.4 | 0.13 | 0.50 | 0.50 | 91 | 1007.6 |
| 20260505222247 | 50 | 14 | 5.2 | 10.4 | 0.14 | 0.49 | 0.49 | 91 | 1007.6 |
| 20260505221246 | 51 | 27 | 5.2 | 12.2 | 0.12 | 0.44 | 0.44 | 90 | 1007.3 |
| 20260505220245 | 52 | 34 | 7.8 | 12.2 | 0.11 | 0.42 | 0.42 | 90 | 1006.7 |
| 20260505215213 | 54 | 30 | 7.8 | 11.3 | 0.13 | 0.41 | 0.41 | 90 | 1007.1 |
| 20260505214211 | 55 | 10 | 3.5 | 7.8 | 0.15 | 0.39 | 0.39 | 92 | 1006.8 |
| 20260505213139 | 55 | 5 | 3.5 | 7.8 | 0.17 | 0.37 | 0.37 | 90 | 1006.5 |
| 20260505212108 | 56 | 6 | 2.6 | 4.3 | 0.17 | 0.35 | 0.35 | 92 | 1006.5 |
| 20260505211036 | 56 | 325 | 1.7 | 6.1 | 0.17 | 0.32 | 0.32 | 93 | 1006.9 |
| 20260505210035 | 56 | 308 | 1.7 | 7.8 | 0.19 | 0.31 | 0.31 | 92 | 1006.6 |
| 20260505205033 | 56 | 310 | 2.6 | 10.4 | 0.18 | 0.28 | 0.28 | 91 | 1006.9 |
| 20260505204001 | 56 | 354 | 7.0 | 10.4 | 0.16 | 0.24 | 0.24 | 91 | 1006.9 |
| 20260505203000 | 56 | 325 | 2.6 | 6.1 | 0.14 | 0.20 | 0.20 | 92 | 1007.3 |
| 20260505201959 | 57 | 336 | 4.3 | 6.1 | 0.14 | 0.18 | 0.18 | 91 | 1007.0 |
| 20260505200926 | 57 | 335 | 2.6 | 5.2 | 0.12 | 0.15 | 0.15 | 92 | 1007.0 |
| 20260505195926 | 57 | 325 | 1.7 | 5.2 | 0.09 | 0.11 | 0.11 | 91 | 1007.0 |
| 20260505194924 | 57 | 321 | 1.7 | 5.2 | 0.09 | 0.10 | 0.10 | 90 | 1007.0 |
| 20260505193923 | 57 | 335 | 1.7 | 3.5 | 0.08 | 0.08 | 0.08 | 91 | 1007.0 |
| 20260505192921 | 57 | 305 | 1.7 | 3.5 | 0.06 | 0.06 | 0.06 | 90 | 1007.4 |
| 20260505191920 | 57 | 316 | 1.7 | 7.0 | 0.04 | 0.04 | 0.04 | 89 | 1007.4 |
| 20260505190919 | 57 | 322 | 3.5 | 7.0 | 0.03 | 0.03 | 0.03 | 87 | 1007.7 |
| 20260505185919 | 58 | 324 | 2.6 | 7.0 | 0.02 | 0.02 | 0.02 | 86 | 1007.4 |
| 20260505184918 | 58 | 326 | 3.5 | 7.8 | 0.01 | 0.01 | 0.01 | 85 | 1007.4 |
| 20260505183918 | 59 | 334 | 3.5 | 10.4 | 0.00 | 0.00 | 0.00 | 84 | 1007.4 |
| 20260505182917 | 60 | 322 | 4.3 | 10.4 | 0.00 | 0.00 | 0.00 | 82 | 1007.5 |
| 20260505181845 | 61 | 338 | 6.1 | 10.4 | 0.00 | 0.00 | 0.00 | 78 | 1007.5 |
| 20260505180844 | 62 | 331 | 6.1 | 14.8 | 0.00 | 0.00 | 0.00 | 75 | 1007.2 |
| 20260505175843 | 63 | 322 | 8.7 | 14.8 | 0.00 | 0.00 | 0.00 | 72 | 1007.5 |
| 20260505174843 | 63 | 316 | 7.8 | 16.5 | 0.00 | 0.00 | 0.00 | 72 | 1007.2 |
| 20260505173708 | 63 | 315 | 8.7 | 18.2 | 0.00 | 0.00 | 0.00 | 70 | 1007.2 |
| 20260505172707 | 64 | 308 | 10.4 | 18.2 | 0.00 | 0.00 | 0.00 | 68 | 1007.2 |
| 20260505171707 | 64 | 321 | 9.6 | 16.5 | 0.00 | 0.00 | 0.00 | 69 | 1007.2 |
| 20260505170706 | 63 | 321 | 7.8 | 16.5 | 0.00 | 0.00 | 0.00 | 70 | 1007.2 |
| 20260505165705 | 63 | 325 | 11.3 | 17.4 | 0.00 | 0.00 | 0.00 | 69 | 1007.1 |
| 20260505164704 | 64 | 323 | 7.8 | 20.9 | 0.00 | 0.00 | 0.00 | 69 | 1007.2 |
| 20260505163704 | 64 | 326 | 9.6 | 20.9 | 0.00 | 0.00 | 0.00 | 68 | 1007.2 |
| 20260505162703 | 64 | 329 | 11.3 | 20.0 | 0.00 | 0.00 | 0.00 | 67 | 1007.2 |
| 20260505161702 | 64 | 319 | 10.4 | 19.1 | 0.00 | 0.00 | 0.00 | 66 | 1007.1 |
| 20260505160702 | 64 | 318 | 9.6 | 19.1 | 0.00 | 0.00 | 0.00 | 66 | 1007.2 |
| 20260505152627 | 66 | 319 | 12.2 | 18.2 | 0.00 | 0.00 | 0.00 | 64 | 1006.5 |
| 20260505151627 | 66 | 301 | 10.4 | 19.1 | 0.00 | 0.00 | 0.00 | 61 | 1005.8 |
| 20260505150626 | 66 | 284 | 11.3 | 20.0 | 0.00 | 0.00 | 0.00 | 63 | 1005.9 |
| 20260505140519 | 64 | 305 | 8.7 | 19.1 | 0.00 | 0.00 | 0.00 | 67 | 1005.8 |